GLO1006 SBGL-SBGR

Flight info

Callsign GLO1006
Flight time 1h 5m
Altitude FL290
Route SIDUR UZ10 EDMUS
Aircraft B738/M-S/N

Departure

Time 2026-05-01 12:41
Airport Rio Galeão – Tom Jobim International Airport (SBGL)

Arrival

Time 2026-05-01 13:46
Airport São Paulo/Guarulhos–Governor André Franco Montoro International Airport (SBGR)
Time Latitude Longitude Altitude Speed Heading
2026-05-01 12:06 -22.81169 -43.25298 36 ft 0 kts 53°
2026-05-01 12:11 -22.81191 -43.25330 36 ft 3 kts 53°
2026-05-01 12:11 -22.81203 -43.25348 36 ft 3 kts 53°
2026-05-01 12:11 -22.81216 -43.25366 36 ft 3 kts 53°
2026-05-01 12:12 -22.81221 -43.25375 36 ft 0 kts 53°
2026-05-01 12:12 -22.81221 -43.25373 36 ft 1 kts 55°
2026-05-01 12:12 -22.81220 -43.25360 36 ft 3 kts 98°
2026-05-01 12:13 -22.81237 -43.25340 36 ft 5 kts 139°
2026-05-01 12:13 -22.81270 -43.25310 36 ft 6 kts 139°
2026-05-01 12:13 -22.81306 -43.25272 36 ft 9 kts 131°
2026-05-01 12:13 -22.81342 -43.25217 36 ft 9 kts 124°
2026-05-01 12:14 -22.81367 -43.25179 36 ft 6 kts 127°
2026-05-01 12:14 -22.81388 -43.25159 36 ft 4 kts 155°
2026-05-01 12:14 -22.81420 -43.25149 36 ft 3 kts 173°
2026-05-01 12:14 -22.81442 -43.25151 36 ft 3 kts 189°
2026-05-01 12:15 -22.81467 -43.25156 36 ft 4 kts 194°
2026-05-01 12:15 -22.81495 -43.25173 36 ft 5 kts 212°
2026-05-01 12:15 -22.81514 -43.25187 36 ft 6 kts 216°
2026-05-01 12:15 -22.81549 -43.25214 36 ft 7 kts 216°
2026-05-01 12:16 -22.81589 -43.25246 36 ft 8 kts 216°
2026-05-01 12:16 -22.81637 -43.25282 36 ft 9 kts 216°
2026-05-01 12:16 -22.81690 -43.25324 36 ft 10 kts 216°
2026-05-01 12:16 -22.81749 -43.25335 36 ft 9 kts 152°
2026-05-01 12:17 -22.81786 -43.25287 36 ft 9 kts 125°
2026-05-01 12:17 -22.81837 -43.25209 36 ft 10 kts 125°
2026-05-01 12:17 -22.81865 -43.25166 36 ft 11 kts 126°
2026-05-01 12:17 -22.81912 -43.25095 36 ft 12 kts 126°
2026-05-01 12:18 -22.81963 -43.25019 36 ft 13 kts 126°
2026-05-01 12:18 -22.82038 -43.24905 36 ft 14 kts 126°
2026-05-01 12:18 -22.82072 -43.24855 36 ft 12 kts 126°
2026-05-01 12:18 -22.82132 -43.24764 36 ft 12 kts 126°
2026-05-01 12:19 -22.82165 -43.24714 36 ft 12 kts 126°
2026-05-01 12:19 -22.82216 -43.24637 36 ft 13 kts 126°
2026-05-01 12:19 -22.82233 -43.24612 36 ft 0 kts 126°
2026-05-01 12:19 -22.82234 -43.24611 36 ft 0 kts 126°
2026-05-01 12:20 -22.82234 -43.24610 36 ft 0 kts 126°
2026-05-01 12:21 -22.82235 -43.24610 36 ft 0 kts 126°
2026-05-01 12:21 -22.82235 -43.24609 36 ft 0 kts 126°
2026-05-01 12:21 -22.82235 -43.24608 36 ft 0 kts 126°
2026-05-01 12:22 -22.82236 -43.24608 36 ft 0 kts 126°
2026-05-01 12:22 -22.82236 -43.24607 36 ft 0 kts 126°
2026-05-01 12:23 -22.82237 -43.24607 36 ft 0 kts 126°
2026-05-01 12:23 -22.82237 -43.24606 36 ft 0 kts 126°
2026-05-01 12:24 -22.82237 -43.24605 36 ft 0 kts 126°
2026-05-01 12:24 -22.82238 -43.24605 36 ft 0 kts 126°
2026-05-01 12:24 -22.82238 -43.24604 36 ft 0 kts 126°
2026-05-01 12:25 -22.82239 -43.24603 36 ft 0 kts 126°
2026-05-01 12:26 -22.82240 -43.24602 36 ft 0 kts 126°
2026-05-01 12:27 -22.82240 -43.24601 36 ft 0 kts 126°
2026-05-01 12:27 -22.82241 -43.24601 36 ft 0 kts 126°
2026-05-01 12:28 -22.82241 -43.24600 36 ft 0 kts 126°
2026-05-01 12:28 -22.82242 -43.24599 36 ft 0 kts 126°
2026-05-01 12:29 -22.82242 -43.24598 36 ft 0 kts 126°
2026-05-01 12:29 -22.82243 -43.24597 36 ft 0 kts 126°
2026-05-01 12:30 -22.82243 -43.24596 36 ft 0 kts 126°
2026-05-01 12:31 -22.82244 -43.24596 36 ft 0 kts 126°
2026-05-01 12:31 -22.82244 -43.24595 36 ft 0 kts 126°
2026-05-01 12:32 -22.82245 -43.24595 36 ft 0 kts 126°
2026-05-01 12:32 -22.82245 -43.24594 36 ft 0 kts 126°
2026-05-01 12:33 -22.82246 -43.24593 36 ft 0 kts 126°
2026-05-01 12:33 -22.82246 -43.24592 36 ft 0 kts 126°
2026-05-01 12:34 -22.82247 -43.24591 36 ft 0 kts 126°
2026-05-01 12:35 -22.82247 -43.24590 36 ft 0 kts 126°
2026-05-01 12:35 -22.82251 -43.24585 36 ft 2 kts 126°
2026-05-01 12:35 -22.82260 -43.24571 36 ft 3 kts 126°
2026-05-01 12:35 -22.82269 -43.24558 36 ft 4 kts 126°
2026-05-01 12:36 -22.82277 -43.24546 36 ft 4 kts 126°
2026-05-01 12:36 -22.82298 -43.24514 36 ft 5 kts 126°
2026-05-01 12:36 -22.82323 -43.24477 36 ft 7 kts 126°
2026-05-01 12:36 -22.82352 -43.24433 36 ft 8 kts 126°
2026-05-01 12:37 -22.82387 -43.24381 36 ft 9 kts 126°
2026-05-01 12:37 -22.82425 -43.24320 36 ft 10 kts 123°
2026-05-01 12:37 -22.82469 -43.24251 36 ft 11 kts 125°
2026-05-01 12:37 -22.82513 -43.24183 36 ft 12 kts 125°
2026-05-01 12:38 -22.82563 -43.24106 36 ft 13 kts 125°
2026-05-01 12:38 -22.82612 -43.24033 36 ft 12 kts 125°
2026-05-01 12:38 -22.82656 -43.23964 36 ft 13 kts 125°
2026-05-01 12:38 -22.82713 -43.23877 36 ft 15 kts 125°
2026-05-01 12:39 -22.82769 -43.23800 36 ft 11 kts 143°
2026-05-01 12:39 -22.82831 -43.23803 36 ft 7 kts 216°
2026-05-01 12:39 -22.82862 -43.23827 36 ft 7 kts 216°
2026-05-01 12:39 -22.82895 -43.23868 36 ft 5 kts 266°
2026-05-01 12:40 -22.82882 -43.23899 36 ft 8 kts 305°
2026-05-01 12:40 -22.82698 -43.24180 36 ft 91 kts 306°
2026-05-01 12:40 -22.82173 -43.24975 36 ft 166 kts 305°
2026-05-01 12:40 -22.81384 -43.26176 54 ft 223 kts 305°
2026-05-01 12:41 -22.80414 -43.27652 580 ft 242 kts 305°
2026-05-01 12:41 -22.79509 -43.29089 2309 ft 228 kts 302°
2026-05-01 12:41 -22.78903 -43.30723 3550 ft 252 kts 287°
2026-05-01 12:41 -22.78426 -43.32654 5337 ft 273 kts 285°
2026-05-01 12:42 -22.77782 -43.34721 6944 ft 310 kts 291°
2026-05-01 12:42 -22.76862 -43.37012 7934 ft 350 kts 295°
2026-05-01 12:42 -22.75754 -43.39459 9015 ft 364 kts 297°
2026-05-01 12:42 -22.74649 -43.41901 10259 ft 365 kts 296°
2026-05-01 12:43 -22.73503 -43.44422 11777 ft 376 kts 296°
2026-05-01 12:43 -22.72390 -43.46892 13260 ft 362 kts 296°
2026-05-01 12:43 -22.71249 -43.49372 14768 ft 372 kts 296°
2026-05-01 12:43 -22.70124 -43.51874 16246 ft 378 kts 294°
2026-05-01 12:44 -22.68969 -43.54485 17777 ft 380 kts 294°
2026-05-01 12:44 -22.67828 -43.57034 19271 ft 379 kts 294°
2026-05-01 12:44 -22.65547 -43.62126 22272 ft 371 kts 295°
2026-05-01 12:45 -22.63847 -43.67103 25216 ft 344 kts 273°
2026-05-01 12:45 -22.64073 -43.69581 26699 ft 329 kts 261°
2026-05-01 12:45 -22.64521 -43.72004 28011 ft 321 kts 260°
2026-05-01 12:46 -22.64816 -43.73576 28481 ft 327 kts 260°
2026-05-01 12:46 -22.65459 -43.76876 29049 ft 344 kts 259°
2026-05-01 12:46 -22.65960 -43.79435 29175 ft 360 kts 259°
2026-05-01 12:46 -22.66516 -43.82170 29181 ft 382 kts 258°
2026-05-01 12:47 -22.67124 -43.85046 29182 ft 404 kts 258°
2026-05-01 12:47 -22.67766 -43.88081 29181 ft 425 kts 258°
2026-05-01 12:47 -22.68464 -43.91260 29181 ft 444 kts 257°
2026-05-01 12:47 -22.69217 -43.94568 29176 ft 461 kts 257°
2026-05-01 12:48 -22.70771 -44.01411 29182 ft 468 kts 257°
2026-05-01 12:48 -22.72114 -44.07314 29182 ft 467 kts 257°
2026-05-01 12:49 -22.73309 -44.12528 29183 ft 467 kts 257°
2026-05-01 12:49 -22.74995 -44.19417 29176 ft 468 kts 251°
2026-05-01 12:50 -22.78073 -44.25627 29202 ft 471 kts 240°
2026-05-01 12:50 -22.81494 -44.31642 29211 ft 470 kts 240°
2026-05-01 12:51 -22.85011 -44.37617 29211 ft 470 kts 239°
2026-05-01 12:52 -22.90359 -44.46489 29212 ft 470 kts 239°
2026-05-01 12:52 -22.95766 -44.55399 29196 ft 475 kts 239°
2026-05-01 12:53 -23.01130 -44.64392 29194 ft 474 kts 240°
2026-05-01 12:53 -23.02568 -44.67596 29197 ft 469 kts 252°
2026-05-01 12:54 -23.03519 -44.70953 29196 ft 468 kts 256°
2026-05-01 12:54 -23.06077 -44.81171 29209 ft 466 kts 257°
2026-05-01 12:55 -23.08432 -44.91361 29217 ft 466 kts 258°
2026-05-01 12:56 -23.09950 -44.98158 29216 ft 466 kts 258°
2026-05-01 12:56 -23.11471 -45.05007 29215 ft 460 kts 258°
2026-05-01 12:56 -23.12203 -45.08293 29215 ft 438 kts 258°
2026-05-01 12:57 -23.12904 -45.11452 29111 ft 420 kts 258°
2026-05-01 12:57 -23.14218 -45.17352 28940 ft 388 kts 258°
2026-05-01 12:57 -23.14836 -45.20137 28859 ft 374 kts 258°
2026-05-01 12:58 -23.15438 -45.22856 28507 ft 368 kts 258°
2026-05-01 12:58 -23.16041 -45.25563 27936 ft 369 kts 258°
2026-05-01 12:58 -23.16633 -45.28241 27489 ft 367 kts 258°
2026-05-01 12:59 -23.17822 -45.33606 26584 ft 363 kts 258°
2026-05-01 12:59 -23.18395 -45.36249 26137 ft 361 kts 258°
2026-05-01 12:59 -23.19570 -45.41512 25266 ft 355 kts 258°
2026-05-01 13:00 -23.20714 -45.46674 23944 ft 349 kts 258°
2026-05-01 13:00 -23.21274 -45.49204 23336 ft 345 kts 258°
2026-05-01 13:01 -23.22398 -45.54207 22390 ft 332 kts 257°
2026-05-01 13:01 -23.22998 -45.56633 22269 ft 338 kts 255°
2026-05-01 13:01 -23.24350 -45.61552 22210 ft 340 kts 255°
2026-05-01 13:02 -23.25034 -45.64024 22209 ft 341 kts 255°
2026-05-01 13:07 -23.34148 -45.96938 15007 ft 324 kts 253°
2026-05-01 13:07 -23.34809 -45.99266 14799 ft 319 kts 253°
2026-05-01 13:07 -23.35465 -46.01580 14196 ft 320 kts 253°
2026-05-01 13:08 -23.36115 -46.03881 13638 ft 318 kts 253°
2026-05-01 13:08 -23.36760 -46.06166 13151 ft 314 kts 254°
2026-05-01 13:08 -23.37396 -46.08422 12648 ft 311 kts 254°
2026-05-01 13:08 -23.38022 -46.10651 12162 ft 308 kts 254°
2026-05-01 13:09 -23.38472 -46.12247 11819 ft 306 kts 254°
2026-05-01 13:09 -23.38995 -46.14116 11417 ft 303 kts 255°
2026-05-01 13:09 -23.39576 -46.16187 11253 ft 291 kts 255°
2026-05-01 13:09 -23.40154 -46.18243 11136 ft 298 kts 255°
2026-05-01 13:10 -23.40656 -46.20026 11037 ft 303 kts 255°
2026-05-01 13:10 -23.40953 -46.21080 10972 ft 300 kts 255°
2026-05-01 13:10 -23.41541 -46.23169 10855 ft 299 kts 255°
2026-05-01 13:10 -23.42079 -46.25081 10760 ft 298 kts 255°
2026-05-01 13:11 -23.42686 -46.27258 10652 ft 297 kts 255°
2026-05-01 13:11 -23.43041 -46.29423 10611 ft 292 kts 270°
2026-05-01 13:11 -23.42694 -46.31579 10644 ft 291 kts 290°
2026-05-01 13:11 -23.41804 -46.33566 10746 ft 290 kts 301°
2026-05-01 13:12 -23.40725 -46.35415 10865 ft 288 kts 304°
2026-05-01 13:12 -23.39617 -46.37234 10967 ft 286 kts 304°
2026-05-01 13:12 -23.38512 -46.39031 11065 ft 287 kts 304°
2026-05-01 13:12 -23.37403 -46.40833 11164 ft 288 kts 304°
2026-05-01 13:13 -23.36295 -46.42638 11263 ft 288 kts 304°
2026-05-01 13:13 -23.35173 -46.44467 11363 ft 289 kts 304°
2026-05-01 13:13 -23.34083 -46.46281 11461 ft 290 kts 303°
2026-05-01 13:13 -23.32991 -46.48136 11561 ft 290 kts 304°
2026-05-01 13:14 -23.31882 -46.49962 11661 ft 291 kts 304°
2026-05-01 13:14 -23.30766 -46.51796 11398 ft 290 kts 304°
2026-05-01 13:14 -23.29669 -46.53636 10828 ft 291 kts 303°
2026-05-01 13:14 -23.28563 -46.55476 10368 ft 287 kts 303°
2026-05-01 13:15 -23.27499 -46.57254 10084 ft 279 kts 303°
2026-05-01 13:15 -23.26575 -46.59075 9990 ft 270 kts 297°
2026-05-01 13:15 -23.25844 -46.60969 9996 ft 275 kts 292°
2026-05-01 13:15 -23.25218 -46.62934 9994 ft 276 kts 290°
2026-05-01 13:16 -23.24606 -46.64903 9993 ft 275 kts 290°
2026-05-01 13:16 -23.23991 -46.66866 9993 ft 275 kts 290°
2026-05-01 13:16 -23.23572 -46.68888 9945 ft 276 kts 278°
2026-05-01 13:17 -23.24366 -46.75024 8763 ft 274 kts 260°
2026-05-01 13:17 -23.24752 -46.77030 8362 ft 272 kts 259°
2026-05-01 13:18 -23.26091 -46.80832 7545 ft 271 kts 236°
2026-05-01 13:18 -23.27291 -46.82398 7169 ft 270 kts 229°
2026-05-01 13:18 -23.28537 -46.83885 7030 ft 264 kts 229°
2026-05-01 13:18 -23.29769 -46.85371 6999 ft 269 kts 229°
2026-05-01 13:19 -23.31026 -46.86897 6993 ft 270 kts 229°
2026-05-01 13:19 -23.32268 -46.88392 6968 ft 262 kts 228°
2026-05-01 13:19 -23.35417 -46.89771 6713 ft 245 kts 170°
2026-05-01 13:20 -23.36844 -46.88923 6612 ft 232 kts 134°
2026-05-01 13:20 -23.37629 -46.87459 6551 ft 225 kts 111°
2026-05-01 13:20 -23.38156 -46.85894 6480 ft 219 kts 108°
2026-05-01 13:21 -23.39136 -46.82737 6223 ft 220 kts 106°
2026-05-01 13:21 -23.39604 -46.81177 6098 ft 219 kts 106°
2026-05-01 13:21 -23.40075 -46.79605 5989 ft 218 kts 106°
2026-05-01 13:21 -23.40539 -46.78056 5984 ft 218 kts 106°
2026-05-01 13:22 -23.41011 -46.76482 5984 ft 218 kts 106°
2026-05-01 13:22 -23.41479 -46.74906 5984 ft 218 kts 106°
2026-05-01 13:22 -23.41930 -46.73332 5984 ft 218 kts 105°
2026-05-01 13:22 -23.42364 -46.71781 5984 ft 218 kts 105°
2026-05-01 13:23 -23.42781 -46.70236 5984 ft 204 kts 105°
2026-05-01 13:23 -23.43394 -46.68892 5904 ft 192 kts 126°
2026-05-01 13:23 -23.44515 -46.68220 5692 ft 187 kts 165°
2026-05-01 13:23 -23.45747 -46.68232 5643 ft 166 kts 183°
2026-05-01 13:24 -23.46846 -46.68365 5402 ft 156 kts 182°
2026-05-01 13:24 -23.47859 -46.68179 5124 ft 143 kts 156°
2026-05-01 13:24 -23.48250 -46.67861 5011 ft 135 kts 136°
2026-05-01 13:25 -23.48614 -46.66197 4636 ft 125 kts 87°
2026-05-01 13:25 -23.48458 -46.65254 4420 ft 126 kts 79°
2026-05-01 13:25 -23.48223 -46.64348 4197 ft 126 kts 75°
2026-05-01 13:25 -23.47976 -46.63482 4042 ft 122 kts 76°
2026-05-01 13:26 -23.47688 -46.62608 4077 ft 124 kts 71°
2026-05-01 13:26 -23.47363 -46.61779 4118 ft 129 kts 71°
2026-05-01 13:26 -23.47058 -46.60813 4089 ft 126 kts 75°
2026-05-01 13:26 -23.46812 -46.59899 4103 ft 127 kts 77°
2026-05-01 13:27 -23.46704 -46.59473 4102 ft 127 kts 77°
2026-05-01 13:27 -23.46603 -46.59050 4099 ft 126 kts 78°
2026-05-01 13:27 -23.46352 -46.57957 4119 ft 123 kts 77°
2026-05-01 13:28 -23.45934 -46.56234 3833 ft 121 kts 76°
2026-05-01 13:28 -23.45683 -46.55303 3700 ft 123 kts 75°
2026-05-01 13:29 -23.45192 -46.53538 3355 ft 123 kts 75°
2026-05-01 13:29 -23.44699 -46.51752 3034 ft 123 kts 75°
2026-05-01 13:30 -23.43747 -46.48206 2532 ft 121 kts 75°
2026-05-01 13:31 -23.43281 -46.46429 2587 ft 123 kts 75°
2026-05-01 13:31 -23.42491 -46.43417 3540 ft 140 kts 76°
2026-05-01 13:32 -23.42357 -46.41205 4084 ft 155 kts 108°
2026-05-01 13:33 -23.44604 -46.40248 4166 ft 162 kts 172°
2026-05-01 13:33 -23.47550 -46.39955 4368 ft 160 kts 172°
2026-05-01 13:34 -23.49578 -46.40820 5337 ft 170 kts 234°
2026-05-01 13:34 -23.49765 -46.42721 6072 ft 170 kts 279°
2026-05-01 13:35 -23.49902 -46.45281 6010 ft 169 kts 259°
2026-05-01 13:35 -23.50199 -46.46523 6000 ft 169 kts 257°
2026-05-01 13:35 -23.50871 -46.48972 6001 ft 170 kts 255°
2026-05-01 13:36 -23.51216 -46.50197 6003 ft 170 kts 255°
2026-05-01 13:36 -23.51566 -46.51420 6001 ft 170 kts 255°
2026-05-01 13:36 -23.52261 -46.53889 6004 ft 170 kts 255°
2026-05-01 13:37 -23.52594 -46.55102 5996 ft 169 kts 255°
2026-05-01 13:37 -23.52942 -46.56331 6008 ft 171 kts 255°
2026-05-01 13:37 -23.53289 -46.57565 6002 ft 169 kts 255°
2026-05-01 13:37 -23.53634 -46.58790 6004 ft 170 kts 255°
2026-05-01 13:38 -23.54323 -46.61256 5998 ft 170 kts 255°
2026-05-01 13:38 -23.54663 -46.62472 5997 ft 171 kts 255°
2026-05-01 13:38 -23.55009 -46.63708 5965 ft 167 kts 255°
2026-05-01 13:39 -23.55155 -46.64931 5604 ft 161 kts 273°
2026-05-01 13:39 -23.54703 -46.65984 5213 ft 147 kts 314°
2026-05-01 13:39 -23.53850 -46.66434 4885 ft 135 kts 346°
2026-05-01 13:39 -23.52936 -46.66582 4467 ft 136 kts 356°
2026-05-01 13:40 -23.51983 -46.66657 4106 ft 138 kts
2026-05-01 13:40 -23.51102 -46.66425 4042 ft 132 kts 26°
2026-05-01 13:40 -23.50342 -46.65841 4137 ft 136 kts 41°
2026-05-01 13:40 -23.49636 -46.65198 4070 ft 127 kts 43°
2026-05-01 13:41 -23.49002 -46.64565 4081 ft 122 kts 48°
2026-05-01 13:41 -23.48448 -46.63719 4114 ft 123 kts 59°
2026-05-01 13:41 -23.48093 -46.63023 4091 ft 122 kts 64°
2026-05-01 13:41 -23.47723 -46.62190 4103 ft 121 kts 66°
2026-05-01 13:42 -23.47410 -46.61333 4099 ft 121 kts 71°
2026-05-01 13:42 -23.47146 -46.60457 4104 ft 121 kts 73°
2026-05-01 13:42 -23.46904 -46.59583 4095 ft 121 kts 74°
2026-05-01 13:42 -23.46668 -46.58710 4102 ft 120 kts 75°
2026-05-01 13:43 -23.46427 -46.57824 4097 ft 122 kts 75°
2026-05-01 13:43 -23.46189 -46.56952 3964 ft 121 kts 75°
2026-05-01 13:43 -23.45945 -46.56069 3806 ft 121 kts 75°
2026-05-01 13:43 -23.45703 -46.55193 3652 ft 121 kts 75°
2026-05-01 13:44 -23.45546 -46.54621 3547 ft 120 kts 76°
2026-05-01 13:44 -23.45221 -46.53457 3343 ft 121 kts 75°
2026-05-01 13:44 -23.44978 -46.52585 3185 ft 121 kts 75°
2026-05-01 13:44 -23.44732 -46.51707 3033 ft 122 kts 74°
2026-05-01 13:45 -23.44486 -46.50822 2873 ft 122 kts 74°
2026-05-01 13:45 -23.44237 -46.49931 2713 ft 122 kts 74°
2026-05-01 13:45 -23.43993 -46.49054 2553 ft 121 kts 74°
2026-05-01 13:45 -23.43758 -46.48193 2471 ft 113 kts 75°
2026-05-01 13:46 -23.43580 -46.47536 2467 ft 65 kts 72°
2026-05-01 13:46 -23.43473 -46.47122 2467 ft 51 kts 71°
2026-05-01 13:46 -23.43385 -46.46933 2467 ft 18 kts 45°
2026-05-01 13:46 -23.43312 -46.46852 2467 ft 14 kts 45°
2026-05-01 13:47 -23.43258 -46.46792 2467 ft 11 kts 45°
2026-05-01 13:47 -23.43213 -46.46743 2467 ft 7 kts 45°
2026-05-01 13:47 -23.43189 -46.46717 2467 ft 4 kts 44°
2026-05-01 13:47 -23.43157 -46.46696 2467 ft 7 kts 19°
2026-05-01 13:48 -23.43124 -46.46699 2467 ft 0 kts 342°
2026-05-01 13:50 -23.43115 -46.46702 2467 ft 4 kts 342°
2026-05-01 13:50 -23.43071 -46.46717 2467 ft 9 kts 342°
2026-05-01 13:50 -23.42974 -46.46742 2467 ft 18 kts 347°
2026-05-01 13:51 -23.42878 -46.46780 2467 ft 12 kts 339°
2026-05-01 13:51 -23.42814 -46.46807 2467 ft 7 kts 339°
2026-05-01 13:51 -23.42789 -46.46825 2467 ft 2 kts 301°
2026-05-01 13:51 -23.42788 -46.46828 2467 ft 1 kts 301°
2026-05-01 13:52 -23.42784 -46.46857 2467 ft 7 kts 257°
2026-05-01 13:52 -23.42798 -46.46911 2467 ft 10 kts 253°
2026-05-01 13:52 -23.42823 -46.47005 2467 ft 14 kts 253°
2026-05-01 13:52 -23.42854 -46.47121 2467 ft 17 kts 254°
2026-05-01 13:53 -23.42883 -46.47233 2467 ft 14 kts 254°
2026-05-01 13:53 -23.42904 -46.47313 2467 ft 15 kts 254°
2026-05-01 13:53 -23.42935 -46.47428 2467 ft 16 kts 254°
2026-05-01 13:54 -23.42965 -46.47544 2467 ft 16 kts 254°
2026-05-01 13:54 -23.42997 -46.47664 2467 ft 17 kts 254°
2026-05-01 13:54 -23.43030 -46.47787 2467 ft 17 kts 253°
2026-05-01 13:54 -23.43057 -46.47890 2467 ft 13 kts 253°
2026-05-01 13:55 -23.43082 -46.47982 2467 ft 13 kts 253°
2026-05-01 13:55 -23.43108 -46.48078 2467 ft 14 kts 253°
2026-05-01 13:55 -23.43135 -46.48179 2467 ft 14 kts 253°
2026-05-01 13:55 -23.43163 -46.48282 2467 ft 14 kts 253°
2026-05-01 13:56 -23.43164 -46.48381 2467 ft 12 kts 308°
2026-05-01 13:56 -23.43093 -46.48423 2467 ft 11 kts 341°
2026-05-01 13:56 -23.43015 -46.48442 2467 ft 12 kts 354°
2026-05-01 13:56 -23.42939 -46.48438 2467 ft 9 kts 17°
2026-05-01 13:57 -23.42894 -46.48420 2467 ft 4 kts
2026-05-01 13:57 -23.42879 -46.48403 2467 ft 3 kts 70°
2026-05-01 13:57 -23.42877 -46.48382 2467 ft 3 kts 86°
2026-05-01 13:57 -23.42875 -46.48362 2467 ft 3 kts 86°
2026-05-01 13:58 -23.42874 -46.48339 2467 ft 0 kts 86°